KEPLER-7 (C3PO) (47949 NORAD) Tracking and Keplerian Element Data

This shows tracking and keplerian element data for the satellite.

Feedback or suggestion? Click here.




ElementValue
Catalog47949
NameKEPLER-7 (C3PO)
Epoch Orbit1384
Epoch Day173.68312403
Epoch Year2021
RAAN75.738
Inclination97.5566
Eccentricity0.0019786
Argument of Perigee296.522
Mean Anonmoly63.3978
Mean Motion15.058771
Decay Rate1.199E-05
L11 47949U 21022T 21173.68312403 .00001199 00000-0 86500-4 0 9994
L22 47949 97.5566 75.7380 0019786 296.5220 63.3978 15.05877100 13846

Live tracking and technical data element details for KEPLER-7 (C3PO) (NORAD 47949). KEPLER-7 (C3PO) can be tracked NOW for your location showing map with azimuth and elevation plus other details from your city location.

Track the satellite on the map from your city or location and see movement details for azimuth, elevation, latitude, longitude, range, height, and movement on the map or in text.







IsCatalogInMostPopularTable: catalog: 47949, numindb: 45
Update: records affected: 1



GetName: 47949 KEPLER-7 (C3PO)

Hit Count: updated at: Thu, 24 Jun 2021 03:57:19 GMT